LRBS Weather Reports


Display with metric or nautical units.
time (UTC)temp
F
wind
direction
speed
MPH
gust
MPH
rain 1hr
in
rain 24hr
in
rain mn
in
humidity
%
barometer
mb
20260505003314 48 10 2.0 0.0 0.00 0.00 0.00 87 1015.0
20260505001814 48 40 2.0 0.0 0.00 0.00 0.00 87 1015.0
20260505000314 48 40 2.0 0.0 0.00 0.00 0.00 87 1015.0
20260504234814 50 110 1.0 0.0 0.00 0.00 0.00 88 1015.0
20260504233314 50 110 1.0 0.0 0.00 0.00 0.00 88 1015.0
20260504231814 50 1.0 0.0 0.00 0.00 0.00 82 1015.0
20260504230314 50 1.0 0.0 0.00 0.00 0.00 82 1015.0
20260504224814 52 0 0.0 0.0 0.00 0.00 0.00 82 1015.0
20260504223314 52 0 0.0 0.0 0.00 0.00 0.00 82 1015.0
20260504221837 52 2.0 0.0 0.00 0.00 0.00 82 1015.0
20260504220314 52 2.0 0.0 0.00 0.00 0.00 82 1015.0
20260504214814 52 20 3.0 0.0 0.00 0.00 0.00 77 1015.0
20260504213330 52 20 3.0 0.0 0.00 0.00 0.00 77 1015.0
20260504211814 54 30 3.0 0.0 0.00 0.00 0.00 72 1015.0
20260504210314 54 30 3.0 0.0 0.00 0.00 0.00 72 1015.0
20260504204814 55 2.0 0.0 0.00 0.00 0.00 72 1015.0
20260504203315 55 2.0 0.0 0.00 0.00 0.00 72 1015.0
20260504201813 55 70 3.0 0.0 0.00 0.00 0.00 72 1015.0
20260504200314 55 70 3.0 0.0 0.00 0.00 0.00 72 1015.0
20260504194814 59 2.0 0.0 0.00 0.00 0.00 63 1015.0
20260504193314 59 2.0 0.0 0.00 0.00 0.00 63 1015.0
20260504191814 61 90 5.0 0.0 0.00 0.00 0.00 59 1015.0
20260504190314 61 90 5.0 0.0 0.00 0.00 0.00 59 1015.0
20260504184814 63 130 5.0 0.0 0.00 0.00 0.00 56 1015.0
20260504183324 63 130 5.0 0.0 0.00 0.00 0.00 56 1015.0
20260504181814 61 120 5.0 0.0 0.00 0.00 0.00 59 1015.0
20260504180314 61 120 5.0 0.0 0.00 0.00 0.00 59 1015.0
20260504174814 63 100 5.0 0.0 0.00 0.00 0.00 56 1014.0
20260504173315 63 100 5.0 0.0 0.00 0.00 0.00 56 1014.0
20260504171814 66 110 5.0 0.0 0.00 0.00 0.00 49 1014.0
20260504170314 66 110 5.0 0.0 0.00 0.00 0.00 49 1014.0
20260504160315 68 100 5.0 0.0 0.00 0.00 0.00 46 1014.0
20260504150314 70 100 5.0 0.0 0.00 0.00 0.00 43 1014.0
20260504140315 72 1.0 0.0 0.00 0.00 0.00 33 1015.0
20260504130314 72 2.0 0.0 0.00 0.00 0.00 36 1015.0
20260504120313 70 100 5.0 0.0 0.00 0.00 0.00 35 1015.0
20260504110314 70 5.0 0.0 0.00 0.00 0.00 38 1016.0
20260504100314 70 5.0 0.0 0.00 0.00 0.00 35 1016.0
20260504081814 64 250 5.0 0.0 0.00 0.00 0.00 37 1017.0
20260504080314 64 250 5.0 0.0 0.00 0.00 0.00 37 1017.0
20260504070315 61 310 5.0 0.0 0.00 0.00 0.00 45 1016.0
20260504050324 48 5.0 0.0 0.00 0.00 0.00 66 1017.0
20260504044814 46 290 5.0 0.0 0.00 0.00 0.00 66 1017.0
20260504043314 46 290 5.0 0.0 0.00 0.00 0.00 66 1017.0
20260504041814 45 290 6.0 0.0 0.00 0.00 0.00 71 1017.0
20260504040314 45 290 6.0 0.0 0.00 0.00 0.00 71 1017.0
20260504034814 43 290 5.0 0.0 0.00 0.00 0.00 76 1017.0
20260504033314 43 290 5.0 0.0 0.00 0.00 0.00 76 1017.0
20260504031814 43 290 6.0 0.0 0.00 0.00 0.00 76 1017.0
20260504030430 43 290 6.0 0.0 0.00 0.00 0.00 76
20260504024815 43 280 5.0 0.0 0.00 0.00 0.00 71 1017.0
20260504023314 43 280 5.0 0.0 0.00 0.00 0.00 71 1017.0
20260504021813 45 280 5.0 0.0 0.00 0.00 0.00 71 1017.0
20260504020314 45 280 5.0 0.0 0.00 0.00 0.00 71 1017.0
20260504014814 45 290 5.0 0.0 0.00 0.00 0.00 71 1018.0
20260504013319 45 290 5.0 0.0 0.00 0.00 0.00 71 1018.0
20260504011930 43 290 5.0 0.0 0.00 0.00 0.00 76 1018.0
20260504010314 43 290 5.0 0.0 0.00 0.00 0.00 76 1018.0
20260504004930 45 280 5.0 0.0 0.00 0.00 0.00 71 1018.0